Weather Roundup
Issued by NWS Chicago, IL

Home | Current Version | Previous Version | Text Only | Print | Product List | Glossary Off
Versions: 1 2 3 4 5 6 7 8 9 10 11 12 13 14 15 16 17 18 19 20 21 22 23 24 25 26 27 28 29 30 31 32 33 34 35 36 37 38 39 40 41 42 43 44 45 46 47 48 49 50

000
NZUS59 KLOT 242000
HRRLOT

CHICAGO AREA WEATHER ROUNDUP
NATIONAL WEATHER SERVICE CHICAGO/ROMEOVILLE IL
300 PM CDT THU JUL 24 2014

NOTE: "FAIR" INDICATES FEW OR NO CLOUDS BELOW 12,000 FEET WITH NO
SIGNIFICANT WEATHER AND/OR OBSTRUCTIONS TO VISIBILITY.

* THESE STATIONS ARE NOT UNDER NWS QUALITY CONTROL. THEY ALSO MAY NOT
  REPORT WEATHER SUCH AS PRECIPITATION OR FOG.

ILZ005-006-012>014-019>023-242100-
NORTHEAST ILLINOIS

CITY           SKY/WX    TMP DP  RH WIND       PRES   REMARKS
OHARE          MOSUNNY   75  44  33 NE12      30.12F
MIDWAY         MOSUNNY   74  49  41 NE10      30.12F
AURORA         SUNNY     76  48  37 NE7       30.12F
LANSING*       SUNNY     71  51  50 NE6       30.13F
WAUKEGAN       SUNNY     69  45  41 E7        30.13F
DUPAGE AIRPORT SUNNY     75  47  36 NE6       30.12F
WHEELING       SUNNY     73  45  36 E8        30.14F
NORTHERLY IS   NOT AVBL
$$

WIZ051-052-058>065-066-070>072-242100-
SOUTHEAST WISCONSIN

CITY           SKY/WX    TMP DP  RH WIND       PRES   REMARKS
MILWAUKEE      MOSUNNY   71  48  43 SE9       30.13F
KENOSHA*       SUNNY     71  45  39 E7        30.13F
RACINE*        SUNNY     69  48  47 E7        30.15F
WAUKESHA       MOSUNNY   72  46  40 CALM      30.13F
$$

INZ001>003-010>013-019-020-242100-
NORTHWEST INDIANA

CITY           SKY/WX    TMP DP  RH WIND       PRES   REMARKS
GARY*          MOSUNNY   72  55  56 NE14      30.14F
MICHIGAN CITY* NOT AVBL
RENSSELAER*    NOT AVBL
VALPARAISO     MOSUNNY   73  55  53 NW7       30.12F
$$

LMZ740>746-242100-
SOUTHERN LAKE MICHIGAN

STATION/POSITION TIME  SKY/WX   TEMP WIND        PRES    VSBY
                                AIR  DIR/SP/G
                 (UTC)          (F)  (DEG/KT/KT) (MB)    (MI)
HARRISON CRIB    1900            63  360/  8/  9   N/A
BURNHAM HARBOR   NOT AVBL
CALUMET HARBOR   1900            66  360/  9/ 12 1019.4F
BURNS HARBOR     NOT AVBL
MICHIGAN CITY    1900            66  340/ 15/ 18   N/A
$$

ABBREVIATIONS USED IN REMARKS
   TC - TEMPERATURE IN CELSIUS
  WCI - WIND CHILL INDEX
   HX - HEAT INDEX
  VSB - VISIBILITY
$$


USA.gov is the U.S. government's official web portal to all federal, state and local government web resources and services.